Time,TemperatureF,DewpointF,PressureIn,WindDirection,WindDirectionDegrees,WindSpeedMPH,WindSpeedGustMPH,Humidity,HourlyPrecipIn,Conditions,Clouds,dailyrainin,SoftwareType,DateUTC
2013-07-14 00:01:00,68.0,66.8,30.28,West,270,0.0,0.0,96,0.00,CLR,,0.00,WeatherDisplay:10.37,2013-07-14 04:01:00,
2013-07-14 00:06:00,67.6,66.4,30.28,SSW,202,0.0,0.0,96,0.00,CLR,,0.00,WeatherDisplay:10.37,2013-07-14 04:06:00,
2013-07-14 00:11:00,67.6,66.4,30.28,SSW,202,0.0,0.0,96,0.00,CLR,,0.00,WeatherDisplay:10.37,2013-07-14 04:11:00,
2013-07-14 00:16:00,67.5,66.3,30.28,SSW,202,0.0,0.0,96,0.00,CLR,,0.00,WeatherDisplay:10.37,2013-07-14 04:16:00,
2013-07-14 00:21:00,67.1,66.2,30.28,SSW,202,0.0,0.0,97,0.00,CLR,,0.00,WeatherDisplay:10.37,2013-07-14 04:21:00,
2013-07-14 00:26:00,66.9,66.0,30.28,SW,225,0.0,0.0,97,0.00,CLR,,0.00,WeatherDisplay:10.37,2013-07-14 04:26:00,
2013-07-14 00:31:00,66.9,66.0,30.28,SSW,202,0.0,0.0,97,0.00,CLR,,0.00,WeatherDisplay:10.37,2013-07-14 04:31:00,
2013-07-14 00:36:00,66.7,65.8,30.28,SSW,202,0.0,0.0,97,0.00,CLR,,0.00,WeatherDisplay:10.37,2013-07-14 04:36:00,
2013-07-14 00:41:00,66.6,65.7,30.28,SSW,202,0.0,0.0,97,0.00,CLR,,0.00,WeatherDisplay:10.37,2013-07-14 04:41:00,
2013-07-14 00:46:00,66.6,65.7,30.28,SSW,202,0.0,0.0,97,0.00,CLR,,0.00,WeatherDisplay:10.37,2013-07-14 04:46:00,
2013-07-14 00:51:00,66.4,65.5,30.28,SSW,202,0.0,0.0,97,0.00,CLR,,0.00,WeatherDisplay:10.37,2013-07-14 04:51:00,
2013-07-14 00:56:00,66.4,65.5,30.28,SW,225,0.0,0.0,97,0.00,CLR,,0.00,WeatherDisplay:10.37,2013-07-14 04:56:00,
2013-07-14 01:01:00,66.2,65.3,30.28,South,180,0.0,0.0,97,0.00,CLR,,0.00,WeatherDisplay:10.37,2013-07-14 05:01:00,
2013-07-14 01:06:00,66.2,65.6,30.28,South,180,0.0,0.0,98,0.00,CLR,,0.00,WeatherDisplay:10.37,2013-07-14 05:06:00,
2013-07-14 01:11:00,66.2,65.6,30.28,South,180,0.0,0.0,98,0.00,CLR,,0.00,WeatherDisplay:10.37,2013-07-14 05:11:00,
2013-07-14 01:16:00,66.0,65.4,30.28,South,180,0.0,0.0,98,0.00,CLR,,0.00,WeatherDisplay:10.37,2013-07-14 05:16:00,
2013-07-14 01:21:00,66.0,65.4,30.28,South,180,0.0,0.0,98,0.00,CLR,,0.00,WeatherDisplay:10.37,2013-07-14 05:21:00,
2013-07-14 01:26:00,65.8,65.2,30.28,South,180,0.0,0.0,98,0.00,CLR,,0.00,WeatherDisplay:10.37,2013-07-14 05:26:00,
2013-07-14 01:31:00,65.7,65.1,30.28,SW,225,0.0,0.0,98,0.00,CLR,,0.00,WeatherDisplay:10.37,2013-07-14 05:31:00,
2013-07-14 01:36:00,65.7,65.1,30.29,SSW,202,0.0,0.0,98,0.00,CLR,,0.00,WeatherDisplay:10.37,2013-07-14 05:36:00,
2013-07-14 01:41:00,65.7,65.1,30.29,SSW,202,0.0,0.0,98,0.00,CLR,,0.00,WeatherDisplay:10.37,2013-07-14 05:41:00,
2013-07-14 01:46:00,65.7,65.1,30.29,SSW,202,0.0,0.0,98,0.00,CLR,,0.00,WeatherDisplay:10.37,2013-07-14 05:46:00,
2013-07-14 01:51:00,65.8,65.2,30.28,SSW,202,0.0,0.0,98,0.00,CLR,,0.00,WeatherDisplay:10.37,2013-07-14 05:51:00,
2013-07-14 01:56:00,66.0,65.4,30.28,SSW,202,0.0,0.0,98,0.00,CLR,,0.00,WeatherDisplay:10.37,2013-07-14 05:56:00,
2013-07-14 02:01:00,66.0,65.4,30.28,SW,225,0.0,0.0,98,0.00,CLR,,0.00,WeatherDisplay:10.37,2013-07-14 06:01:00,
2013-07-14 02:02:00,66.0,65.4,30.28,SW,225,0.0,0.0,98,0.00,CLR,,0.00,WeatherDisplay:10.37,2013-07-14 06:02:00,
2013-07-14 02:07:00,65.8,65.2,30.28,SSW,202,0.0,0.0,98,0.00,CLR,,0.00,WeatherDisplay:10.37,2013-07-14 06:07:00,
2013-07-14 02:12:00,65.8,65.2,30.28,SW,225,0.0,0.0,98,0.00,CLR,,0.00,WeatherDisplay:10.37,2013-07-14 06:12:00,
2013-07-14 02:17:00,65.7,65.1,30.28,SSW,202,0.0,0.0,98,0.00,CLR,,0.00,WeatherDisplay:10.37,2013-07-14 06:17:00,
2013-07-14 02:22:00,65.7,65.1,30.28,South,180,2.3,2.3,98,0.00,CLR,,0.00,WeatherDisplay:10.37,2013-07-14 06:22:00,
2013-07-14 02:27:00,65.7,65.1,30.28,SSW,202,1.2,1.2,98,0.00,CLR,,0.00,WeatherDisplay:10.37,2013-07-14 06:27:00,
2013-07-14 02:32:00,65.5,64.9,30.28,SSW,202,0.0,0.0,98,0.00,CLR,,0.00,WeatherDisplay:10.37,2013-07-14 06:32:00,
2013-07-14 02:37:00,65.5,64.9,30.29,SW,225,0.0,0.0,98,0.00,CLR,,0.00,WeatherDisplay:10.37,2013-07-14 06:37:00,
2013-07-14 02:42:00,65.5,64.9,30.29,SSW,202,0.0,0.0,98,0.00,CLR,,0.00,WeatherDisplay:10.37,2013-07-14 06:42:00,
2013-07-14 02:47:00,65.3,64.7,30.29,SSW,202,0.0,0.0,98,0.00,CLR,,0.00,WeatherDisplay:10.37,2013-07-14 06:47:00,
2013-07-14 02:52:00,65.1,64.5,30.29,South,180,0.0,0.0,98,0.00,CLR,,0.00,WeatherDisplay:10.37,2013-07-14 06:52:00,
2013-07-14 02:57:00,65.1,64.5,30.29,SSE,158,0.0,0.0,98,0.00,CLR,,0.00,WeatherDisplay:10.37,2013-07-14 06:57:00,
2013-07-14 03:02:00,64.9,64.3,30.28,SSW,202,0.0,0.0,98,0.00,CLR,,0.00,WeatherDisplay:10.37,2013-07-14 07:02:00,
2013-07-14 03:07:00,64.9,64.3,30.28,SSW,202,0.0,0.0,98,0.00,CLR,,0.00,WeatherDisplay:10.37,2013-07-14 07:07:00,
2013-07-14 03:12:00,64.9,64.3,30.29,SW,225,0.0,0.0,98,0.00,CLR,,0.00,WeatherDisplay:10.37,2013-07-14 07:12:00,
2013-07-14 03:17:00,64.9,64.3,30.29,SW,225,0.0,0.0,98,0.00,CLR,,0.00,WeatherDisplay:10.37,2013-07-14 07:17:00,
2013-07-14 03:22:00,64.9,64.3,30.29,South,180,0.0,0.0,98,0.00,CLR,,0.00,WeatherDisplay:10.37,2013-07-14 07:22:00,
2013-07-14 03:27:00,64.9,64.3,30.29,South,180,0.0,0.0,98,0.00,CLR,,0.00,WeatherDisplay:10.37,2013-07-14 07:27:00,
2013-07-14 03:32:00,64.9,64.3,30.29,SSE,158,0.0,0.0,98,0.00,CLR,,0.00,WeatherDisplay:10.37,2013-07-14 07:32:00,
2013-07-14 03:37:00,64.9,64.3,30.28,SSE,158,0.0,0.0,98,0.00,CLR,,0.00,WeatherDisplay:10.37,2013-07-14 07:37:00,
2013-07-14 03:42:00,64.8,64.2,30.28,SSW,202,0.0,0.0,98,0.00,CLR,,0.00,WeatherDisplay:10.37,2013-07-14 07:42:00,
2013-07-14 03:47:00,64.8,64.2,30.29,South,180,0.0,0.0,98,0.00,CLR,,0.00,WeatherDisplay:10.37,2013-07-14 07:47:00,
2013-07-14 03:52:00,64.8,64.2,30.29,SSE,158,0.0,0.0,98,0.00,CLR,,0.00,WeatherDisplay:10.37,2013-07-14 07:52:00,
2013-07-14 03:57:00,64.8,64.2,30.29,SSE,158,0.0,0.0,98,0.00,CLR,,0.00,WeatherDisplay:10.37,2013-07-14 07:57:00,
2013-07-14 04:02:00,64.8,64.2,30.29,SW,225,0.0,0.0,98,0.00,CLR,,0.00,WeatherDisplay:10.37,2013-07-14 08:02:00,
2013-07-14 04:07:00,64.6,64.0,30.29,SSW,202,0.0,0.0,98,0.00,CLR,,0.00,WeatherDisplay:10.37,2013-07-14 08:07:00,
2013-07-14 04:12:00,64.4,63.8,30.29,SSW,202,0.0,0.0,98,0.00,CLR,,0.00,WeatherDisplay:10.37,2013-07-14 08:12:00,
2013-07-14 04:17:00,64.4,63.8,30.29,SSW,202,0.0,0.0,98,0.00,CLR,,0.00,WeatherDisplay:10.37,2013-07-14 08:17:00,
2013-07-14 04:22:00,64.4,63.8,30.29,SSW,202,0.0,0.0,98,0.00,CLR,,0.00,WeatherDisplay:10.37,2013-07-14 08:22:00,
2013-07-14 04:27:00,64.4,63.8,30.29,SSW,202,0.0,0.0,98,0.00,CLR,,0.00,WeatherDisplay:10.37,2013-07-14 08:27:00,
2013-07-14 04:32:00,64.4,63.8,30.29,WSW,248,0.0,0.0,98,0.00,CLR,,0.00,WeatherDisplay:10.37,2013-07-14 08:32:00,
2013-07-14 04:37:00,64.2,63.6,30.29,SW,225,0.0,0.0,98,0.00,CLR,,0.00,WeatherDisplay:10.37,2013-07-14 08:37:00,
2013-07-14 04:42:00,64.2,63.6,30.29,West,270,0.0,0.0,98,0.00,CLR,,0.00,WeatherDisplay:10.37,2013-07-14 08:42:00,
2013-07-14 04:47:00,64.2,63.6,30.30,WSW,248,0.0,0.0,98,0.00,CLR,,0.00,WeatherDisplay:10.37,2013-07-14 08:47:00,
2013-07-14 04:52:00,64.0,63.4,30.30,South,180,0.0,0.0,98,0.00,CLR,,0.00,WeatherDisplay:10.37,2013-07-14 08:52:00,
2013-07-14 04:57:00,64.0,63.4,30.30,South,180,0.0,0.0,98,0.00,CLR,,0.00,WeatherDisplay:10.37,2013-07-14 08:57:00,
2013-07-14 05:02:00,63.9,63.3,30.30,South,180,0.0,0.0,98,0.00,CLR,,0.00,WeatherDisplay:10.37,2013-07-14 09:02:00,
2013-07-14 05:07:00,63.7,63.1,30.30,West,270,0.0,0.0,98,0.00,CLR,,0.00,WeatherDisplay:10.37,2013-07-14 09:07:00,
2013-07-14 05:12:00,63.3,62.7,30.30,NW,315,0.0,0.0,98,0.00,CLR,,0.00,WeatherDisplay:10.37,2013-07-14 09:12:00,
2013-07-14 05:17:00,63.3,62.7,30.30,NW,315,0.0,0.0,98,0.00,CLR,,0.00,WeatherDisplay:10.37,2013-07-14 09:17:00,
2013-07-14 05:22:00,63.3,62.7,30.30,SSW,202,0.0,0.0,98,0.00,CLR,,0.00,WeatherDisplay:10.37,2013-07-14 09:22:00,
2013-07-14 05:27:00,63.3,62.7,30.31,SW,225,0.0,0.0,98,0.00,CLR,,0.00,WeatherDisplay:10.37,2013-07-14 09:27:00,
2013-07-14 05:32:00,63.5,62.9,30.31,SSW,202,0.0,0.0,98,0.00,CLR,,0.00,WeatherDisplay:10.37,2013-07-14 09:32:00,
2013-07-14 05:37:00,63.5,62.9,30.31,SSW,202,0.0,0.0,98,0.00,CLR,,0.00,WeatherDisplay:10.37,2013-07-14 09:37:00,
2013-07-14 05:42:00,63.3,62.7,30.31,SSW,202,0.0,0.0,98,0.00,CLR,,0.00,WeatherDisplay:10.37,2013-07-14 09:42:00,
2013-07-14 05:47:00,63.3,62.7,30.31,SE,135,0.0,0.0,98,0.00,CLR,,0.00,WeatherDisplay:10.37,2013-07-14 09:47:00,
2013-07-14 05:52:00,63.1,62.5,30.31,SE,135,0.0,0.0,98,0.00,CLR,,0.00,WeatherDisplay:10.37,2013-07-14 09:52:00,
2013-07-14 05:57:00,63.0,62.4,30.31,SSW,202,0.0,0.0,98,0.00,CLR,,0.00,WeatherDisplay:10.37,2013-07-14 09:57:00,
2013-07-14 06:02:00,63.0,62.4,30.32,SSW,202,0.0,0.0,98,0.00,CLR,,0.00,WeatherDisplay:10.37,2013-07-14 10:02:00,
2013-07-14 06:07:00,62.8,62.2,30.32,SW,225,0.0,0.0,98,0.00,CLR,,0.00,WeatherDisplay:10.37,2013-07-14 10:07:00,
2013-07-14 06:12:00,62.8,62.2,30.32,SW,225,0.0,0.0,98,0.00,CLR,,0.00,WeatherDisplay:10.37,2013-07-14 10:12:00,
2013-07-14 06:13:00,62.8,62.2,30.32,SW,225,0.0,0.0,98,0.00,CLR,,0.00,WeatherDisplay:10.37,2013-07-14 10:13:00,
2013-07-14 06:18:00,62.8,62.2,30.32,SW,225,0.0,0.0,98,0.00,CLR,,0.00,WeatherDisplay:10.37,2013-07-14 10:18:00,
2013-07-14 06:23:00,62.8,62.2,30.32,SW,225,0.0,0.0,98,0.00,CLR,,0.00,WeatherDisplay:10.37,2013-07-14 10:23:00,
2013-07-14 06:28:00,62.8,62.2,30.32,South,180,0.0,0.0,98,0.00,CLR,,0.00,WeatherDisplay:10.37,2013-07-14 10:28:00,
2013-07-14 06:33:00,62.8,62.2,30.32,South,180,0.0,0.0,98,0.00,CLR,,0.00,WeatherDisplay:10.37,2013-07-14 10:33:00,
2013-07-14 06:38:00,63.0,62.4,30.33,SSW,202,0.0,0.0,98,0.00,CLR,,0.00,WeatherDisplay:10.37,2013-07-14 10:38:00,
2013-07-14 06:43:00,63.0,62.4,30.33,South,180,0.0,0.0,98,0.00,CLR,,0.00,WeatherDisplay:10.37,2013-07-14 10:43:00,
2013-07-14 06:48:00,63.1,62.5,30.33,South,180,0.0,0.0,98,0.00,CLR,,0.00,WeatherDisplay:10.37,2013-07-14 10:48:00,
2013-07-14 06:53:00,63.3,62.7,30.33,SSW,202,0.0,0.0,98,0.00,CLR,,0.00,WeatherDisplay:10.37,2013-07-14 10:53:00,
2013-07-14 06:58:00,63.7,63.1,30.33,SW,225,0.0,0.0,98,0.00,CLR,,0.00,WeatherDisplay:10.37,2013-07-14 10:58:00,
2013-07-14 07:03:00,64.0,63.7,30.33,SW,225,0.0,0.0,99,0.00,CLR,,0.00,WeatherDisplay:10.37,2013-07-14 11:03:00,
2013-07-14 07:08:00,64.6,64.3,30.33,South,180,0.0,0.0,99,0.00,CLR,,0.00,WeatherDisplay:10.37,2013-07-14 11:08:00,
2013-07-14 07:13:00,64.9,64.6,30.33,SSW,202,0.0,0.0,99,0.00,CLR,,0.00,WeatherDisplay:10.37,2013-07-14 11:13:00,
2013-07-14 07:18:00,65.3,65.0,30.33,SSW,202,0.0,0.0,99,0.00,CLR,,0.00,WeatherDisplay:10.37,2013-07-14 11:18:00,
2013-07-14 07:23:00,65.8,65.2,30.33,South,180,3.5,3.5,98,0.00,CLR,,0.00,WeatherDisplay:10.37,2013-07-14 11:23:00,
2013-07-14 07:28:00,66.4,65.8,30.33,SSW,202,3.5,3.5,98,0.00,CLR,,0.00,WeatherDisplay:10.37,2013-07-14 11:28:00,
2013-07-14 07:33:00,66.7,66.1,30.33,South,180,0.0,0.0,98,0.00,CLR,,0.00,WeatherDisplay:10.37,2013-07-14 11:33:00,
2013-07-14 07:38:00,67.5,66.6,30.33,South,180,2.7,2.7,97,0.00,CLR,,0.00,WeatherDisplay:10.37,2013-07-14 11:38:00,
2013-07-14 07:43:00,68.2,67.0,30.33,SSW,202,0.0,0.0,96,0.00,CLR,,0.00,WeatherDisplay:10.37,2013-07-14 11:43:00,
2013-07-14 07:48:00,69.1,67.6,30.33,SSW,202,0.0,0.0,95,0.00,CLR,,0.00,WeatherDisplay:10.37,2013-07-14 11:48:00,
2013-07-14 07:53:00,70.3,68.2,30.33,SSW,202,2.3,2.3,93,0.00,CLR,,0.00,WeatherDisplay:10.37,2013-07-14 11:53:00,
2013-07-14 07:58:00,71.6,69.2,30.33,South,180,3.5,3.5,92,0.00,CLR,,0.00,WeatherDisplay:10.37,2013-07-14 11:58:00,
2013-07-14 08:03:00,71.1,68.3,30.34,SSW,202,3.5,3.5,91,0.00,CLR,,0.00,WeatherDisplay:10.37,2013-07-14 12:03:00,
2013-07-14 08:08:00,71.4,68.6,30.34,SSW,202,2.3,2.4,91,0.00,CLR,,0.00,WeatherDisplay:10.37,2013-07-14 12:08:00,
2013-07-14 08:13:00,72.1,69.3,30.34,South,180,3.5,3.5,91,0.00,CLR,,0.00,WeatherDisplay:10.37,2013-07-14 12:13:00,
2013-07-14 08:18:00,72.7,69.6,30.34,SSW,202,0.0,0.0,90,0.00,CLR,,0.00,WeatherDisplay:10.37,2013-07-14 12:18:00,
2013-07-14 08:23:00,73.9,70.8,30.34,SSW,202,0.0,0.0,90,0.00,CLR,,0.00,WeatherDisplay:10.37,2013-07-14 12:23:00,
2013-07-14 08:28:00,74.5,71.0,30.34,SW,225,0.0,0.0,89,0.00,CLR,,0.00,WeatherDisplay:10.37,2013-07-14 12:28:00,
2013-07-14 08:33:00,75.4,71.9,30.34,SSW,202,3.5,3.5,89,0.00,CLR,,0.00,WeatherDisplay:10.37,2013-07-14 12:33:00,
2013-07-14 08:38:00,75.7,71.9,30.34,SSE,158,3.5,3.5,88,0.00,CLR,,0.00,WeatherDisplay:10.37,2013-07-14 12:38:00,
2013-07-14 08:43:00,76.3,72.5,30.34,SSW,202,2.3,2.4,88,0.00,CLR,,0.00,WeatherDisplay:10.37,2013-07-14 12:43:00,
2013-07-14 08:48:00,77.0,73.2,30.34,SSE,158,2.3,2.3,88,0.00,CLR,,0.00,WeatherDisplay:10.37,2013-07-14 12:48:00,
2013-07-14 08:53:00,77.4,73.2,30.34,ESE,112,1.2,1.2,87,0.00,CLR,,0.00,WeatherDisplay:10.37,2013-07-14 12:53:00,
2013-07-14 08:58:00,77.9,73.7,30.34,SSE,158,3.2,3.2,87,0.00,CLR,,0.00,WeatherDisplay:10.37,2013-07-14 12:58:00,
2013-07-14 09:03:00,77.9,73.4,30.33,ESE,112,2.3,2.3,86,0.00,CLR,,0.00,WeatherDisplay:10.37,2013-07-14 13:03:00,
2013-07-14 09:08:00,79.0,74.5,30.33,SSW,202,0.0,0.0,86,0.00,CLR,,0.00,WeatherDisplay:10.37,2013-07-14 13:08:00,
2013-07-14 09:13:00,79.2,74.3,30.33,SSE,158,2.3,2.3,85,0.00,CLR,,0.00,WeatherDisplay:10.37,2013-07-14 13:13:00,
2013-07-14 09:18:00,79.3,74.0,30.33,ESE,112,0.0,0.0,84,0.00,CLR,,0.00,WeatherDisplay:10.37,2013-07-14 13:18:00,
2013-07-14 09:23:00,79.3,74.4,30.33,SSW,202,2.3,2.3,85,0.00,CLR,,0.00,WeatherDisplay:10.37,2013-07-14 13:23:00,
2013-07-14 09:28:00,78.8,73.2,30.33,SSW,202,4.6,4.6,83,0.00,CLR,,0.00,WeatherDisplay:10.37,2013-07-14 13:28:00,
2013-07-14 09:33:00,79.2,72.9,30.33,SW,225,2.3,2.3,81,0.00,CLR,,0.00,WeatherDisplay:10.37,2013-07-14 13:33:00,
2013-07-14 09:38:00,79.3,73.3,30.33,SW,225,3.5,3.5,82,0.00,CLR,,0.00,WeatherDisplay:10.37,2013-07-14 13:38:00,
2013-07-14 09:43:00,79.5,73.9,30.33,SSE,158,1.7,1.7,83,0.00,CLR,,0.00,WeatherDisplay:10.37,2013-07-14 13:43:00,
2013-07-14 09:48:00,79.7,74.1,30.33,SSE,158,2.7,2.7,83,0.00,CLR,,0.00,WeatherDisplay:10.37,2013-07-14 13:48:00,
2013-07-14 09:53:00,79.3,73.3,30.33,SSW,202,3.7,3.7,82,0.00,CLR,,0.00,WeatherDisplay:10.37,2013-07-14 13:53:00,
2013-07-14 09:58:00,79.0,72.7,30.33,WSW,248,3.5,3.5,81,0.00,CLR,,0.00,WeatherDisplay:10.37,2013-07-14 13:58:00,
2013-07-14 10:03:00,79.7,73.7,30.33,West,270,2.3,2.3,82,0.00,CLR,,0.00,WeatherDisplay:10.37,2013-07-14 14:03:00,
2013-07-14 10:08:00,79.7,73.7,30.33,SSW,202,0.0,0.0,82,0.00,CLR,,0.00,WeatherDisplay:10.37,2013-07-14 14:08:00,
2013-07-14 10:13:00,80.6,73.9,30.33,SE,135,0.0,0.0,80,0.00,CLR,,0.00,WeatherDisplay:10.37,2013-07-14 14:13:00,
2013-07-14 10:18:00,80.4,74.0,30.33,West,270,0.0,0.0,81,0.00,CLR,,0.00,WeatherDisplay:10.37,2013-07-14 14:18:00,
2013-07-14 10:23:00,80.6,73.9,30.33,South,180,0.0,0.0,80,0.00,CLR,,0.00,WeatherDisplay:10.37,2013-07-14 14:23:00,
2013-07-14 10:28:00,81.1,73.6,30.33,ESE,112,0.0,0.0,78,0.00,CLR,,0.00,WeatherDisplay:10.37,2013-07-14 14:28:00,
2013-07-14 10:33:00,81.7,74.2,30.33,SW,225,0.0,0.0,78,0.00,CLR,,0.00,WeatherDisplay:10.37,2013-07-14 14:33:00,
2013-07-14 10:38:00,82.4,73.7,30.33,WNW,292,0.0,0.0,75,0.00,CLR,,0.00,WeatherDisplay:10.37,2013-07-14 14:38:00,
2013-07-14 10:43:00,81.7,73.4,30.33,West,270,0.0,0.0,76,0.00,CLR,,0.00,WeatherDisplay:10.37,2013-07-14 14:43:00,
2013-07-14 10:48:00,82.0,73.3,30.33,North,360,0.0,0.0,75,0.00,CLR,,0.00,WeatherDisplay:10.37,2013-07-14 14:48:00,
2013-07-14 10:53:00,81.9,74.7,30.33,WSW,248,0.0,0.0,79,0.00,CLR,,0.00,WeatherDisplay:10.37,2013-07-14 14:53:00,
2013-07-14 10:58:00,82.0,74.8,30.32,WSW,248,0.0,0.0,79,0.00,CLR,,0.00,WeatherDisplay:10.37,2013-07-14 14:58:00,
2013-07-14 11:04:00,82.4,75.6,30.32,SW,225,0.0,0.0,80,0.00,CLR,,0.00,WeatherDisplay:10.37,2013-07-14 15:04:00,
2013-07-14 11:09:00,82.2,74.7,30.32,NNW,338,3.5,3.5,78,0.00,CLR,,0.00,WeatherDisplay:10.37,2013-07-14 15:09:00,
2013-07-14 11:14:00,82.6,74.3,30.32,ESE,112,1.2,1.2,76,0.00,CLR,,0.00,WeatherDisplay:10.37,2013-07-14 15:14:00,
2013-07-14 11:19:00,82.6,75.4,30.32,South,180,0.0,0.0,79,0.00,CLR,,0.00,WeatherDisplay:10.37,2013-07-14 15:19:00,
2013-07-14 11:24:00,83.1,74.7,30.32,NNE,22,2.7,2.7,76,0.00,CLR,,0.00,WeatherDisplay:10.37,2013-07-14 15:24:00,
2013-07-14 11:29:00,82.9,74.9,30.32,SSE,158,3.5,3.5,77,0.00,CLR,,0.00,WeatherDisplay:10.37,2013-07-14 15:29:00,
2013-07-14 11:34:00,82.4,74.1,30.32,SSE,158,4.6,4.6,76,0.00,CLR,,0.00,WeatherDisplay:10.37,2013-07-14 15:34:00,
2013-07-14 11:39:00,82.9,74.6,30.33,SSW,202,3.5,3.5,76,0.00,CLR,,0.00,WeatherDisplay:10.37,2013-07-14 15:39:00,
2013-07-14 11:44:00,83.3,74.1,30.33,North,360,1.7,1.7,74,0.00,CLR,,0.00,WeatherDisplay:10.37,2013-07-14 15:44:00,
2013-07-14 11:49:00,82.9,74.2,30.32,SW,225,4.6,4.6,75,0.00,CLR,,0.00,WeatherDisplay:10.37,2013-07-14 15:49:00,
2013-07-14 11:54:00,83.7,74.9,30.32,North,360,0.0,0.0,75,0.00,CLR,,0.00,WeatherDisplay:10.37,2013-07-14 15:54:00,
2013-07-14 11:59:00,82.9,74.9,30.32,South,180,4.7,4.7,77,0.00,CLR,,0.00,WeatherDisplay:10.37,2013-07-14 15:59:00,
2013-07-14 12:04:00,82.4,75.2,30.32,SSW,202,4.6,4.6,79,0.00,CLR,,0.00,WeatherDisplay:10.37,2013-07-14 16:04:00,
2013-07-14 12:09:00,82.4,74.5,30.32,SSE,158,3.5,3.5,77,0.00,CLR,,0.00,WeatherDisplay:10.37,2013-07-14 16:09:00,
2013-07-14 12:14:00,82.6,74.7,30.32,SSW,202,2.3,2.3,77,0.00,CLR,,0.00,WeatherDisplay:10.37,2013-07-14 16:14:00,
2013-07-14 12:19:00,83.5,75.5,30.32,SSE,158,2.3,2.3,77,0.00,CLR,,0.00,WeatherDisplay:10.37,2013-07-14 16:19:00,
2013-07-14 12:24:00,82.8,74.5,30.32,South,180,3.5,3.5,76,0.00,CLR,,0.00,WeatherDisplay:10.37,2013-07-14 16:24:00,
2013-07-14 12:29:00,83.1,74.7,30.32,ESE,112,2.3,2.3,76,0.00,CLR,,0.00,WeatherDisplay:10.37,2013-07-14 16:29:00,
2013-07-14 12:34:00,84.0,75.6,30.32,East,90,2.7,2.7,76,0.00,CLR,,0.00,WeatherDisplay:10.37,2013-07-14 16:34:00,
2013-07-14 12:39:00,82.9,74.2,30.31,South,180,5.8,5.8,75,0.00,CLR,,0.00,WeatherDisplay:10.37,2013-07-14 16:39:00,
2013-07-14 12:44:00,83.7,76.1,30.31,South,180,4.6,4.6,78,0.00,CLR,,0.00,WeatherDisplay:10.37,2013-07-14 16:44:00,
2013-07-14 12:49:00,83.7,74.9,30.31,ESE,112,5.8,5.8,75,0.00,CLR,,0.00,WeatherDisplay:10.37,2013-07-14 16:49:00,
2013-07-14 12:54:00,83.7,74.9,30.31,South,180,3.7,3.7,75,0.00,CLR,,0.00,WeatherDisplay:10.37,2013-07-14 16:54:00,
2013-07-14 12:59:00,83.8,75.4,30.31,SE,135,5.8,5.8,76,0.00,CLR,,0.00,WeatherDisplay:10.37,2013-07-14 16:59:00,
2013-07-14 13:04:00,84.4,75.6,30.31,SSE,158,5.8,5.8,75,0.00,CLR,,0.00,WeatherDisplay:10.37,2013-07-14 17:04:00,
2013-07-14 13:09:00,83.7,76.1,30.31,South,180,8.1,8.1,78,0.00,CLR,,0.00,WeatherDisplay:10.37,2013-07-14 17:09:00,
2013-07-14 13:14:00,83.8,75.4,30.31,SE,135,3.5,3.5,76,0.00,CLR,,0.00,WeatherDisplay:10.37,2013-07-14 17:14:00,
2013-07-14 13:19:00,84.4,75.6,30.31,SSW,202,4.6,4.6,75,0.00,CLR,,0.00,WeatherDisplay:10.37,2013-07-14 17:19:00,
2013-07-14 13:24:00,84.7,75.9,30.31,SSW,202,5.8,5.8,75,0.00,CLR,,0.00,WeatherDisplay:10.37,2013-07-14 17:24:00,
2013-07-14 13:29:00,85.6,76.8,30.31,SSW,202,3.5,3.5,75,0.00,CLR,,0.00,WeatherDisplay:10.37,2013-07-14 17:29:00,
2013-07-14 13:34:00,85.1,76.7,30.31,WSW,248,4.6,4.6,76,0.00,CLR,,0.00,WeatherDisplay:10.37,2013-07-14 17:34:00,
2013-07-14 13:39:00,85.1,76.3,30.31,South,180,6.3,6.3,75,0.00,CLR,,0.00,WeatherDisplay:10.37,2013-07-14 17:39:00,
2013-07-14 13:44:00,85.8,77.0,30.31,SSW,202,4.7,4.7,75,0.00,CLR,,0.00,WeatherDisplay:10.37,2013-07-14 17:44:00,
2013-07-14 13:49:00,86.7,77.0,30.31,SSE,158,3.2,3.2,73,0.00,CLR,,0.00,WeatherDisplay:10.37,2013-07-14 17:49:00,
2013-07-14 13:54:00,88.7,78.1,30.31,NW,315,1.2,1.2,71,0.00,CLR,,0.00,WeatherDisplay:10.37,2013-07-14 17:54:00,
2013-07-14 13:59:00,86.9,77.6,30.31,South,180,3.7,3.7,74,0.00,CLR,,0.00,WeatherDisplay:10.37,2013-07-14 17:59:00,
2013-07-14 14:04:00,88.2,78.4,30.30,SSW,202,4.6,4.6,73,0.00,CLR,,0.00,WeatherDisplay:10.37,2013-07-14 18:04:00,
2013-07-14 14:09:00,88.0,77.4,30.30,South,180,2.3,2.5,71,0.00,CLR,,0.00,WeatherDisplay:10.37,2013-07-14 18:09:00,
2013-07-14 14:14:00,88.9,78.7,30.30,SSW,202,4.2,4.2,72,0.00,CLR,,0.00,WeatherDisplay:10.37,2013-07-14 18:14:00,
2013-07-14 14:19:00,89.6,79.4,30.30,East,90,3.2,3.2,72,0.00,CLR,,0.00,WeatherDisplay:10.37,2013-07-14 18:19:00,
2013-07-14 14:24:00,89.4,77.9,30.29,South,180,3.7,3.7,69,0.00,CLR,,0.00,WeatherDisplay:10.37,2013-07-14 18:24:00,
2013-07-14 14:29:00,89.6,78.9,30.29,SSE,158,3.5,3.5,71,0.00,CLR,,0.00,WeatherDisplay:10.37,2013-07-14 18:29:00,
2013-07-14 14:34:00,90.0,79.3,30.29,South,180,0.0,0.0,71,0.00,CLR,,0.00,WeatherDisplay:10.37,2013-07-14 18:34:00,
2013-07-14 14:39:00,93.2,81.1,30.29,NE,45,0.0,0.0,68,0.00,CLR,,0.00,WeatherDisplay:10.37,2013-07-14 18:39:00,
2013-07-14 14:44:00,94.5,80.4,30.29,East,90,3.5,3.5,64,0.00,CLR,,0.00,WeatherDisplay:10.37,2013-07-14 18:44:00,
2013-07-14 14:49:00,92.3,80.2,30.29,SSE,158,3.5,3.5,68,0.00,CLR,,0.00,WeatherDisplay:10.37,2013-07-14 18:49:00,
2013-07-14 14:54:00,90.7,79.1,30.29,SSW,202,3.7,3.7,69,0.00,CLR,,0.00,WeatherDisplay:10.37,2013-07-14 18:54:00,
2013-07-14 14:59:00,90.7,79.6,30.29,South,180,3.5,3.5,70,0.00,CLR,,0.00,WeatherDisplay:10.37,2013-07-14 18:59:00,
2013-07-14 15:04:00,92.7,81.0,30.29,SSE,158,5.8,5.8,69,0.00,CLR,,0.00,WeatherDisplay:10.37,2013-07-14 19:04:00,
2013-07-14 15:09:00,91.9,80.3,30.29,SSE,158,2.7,2.7,69,0.00,CLR,,0.00,WeatherDisplay:10.37,2013-07-14 19:09:00,
2013-07-14 15:14:00,92.3,79.8,30.29,SSE,158,0.0,0.0,67,0.00,CLR,,0.00,WeatherDisplay:10.37,2013-07-14 19:14:00,
2013-07-14 15:19:00,91.8,79.7,30.29,SW,225,0.0,0.0,68,0.00,CLR,,0.00,WeatherDisplay:10.37,2013-07-14 19:19:00,
2013-07-14 15:24:00,90.1,78.6,30.29,SSE,158,2.7,2.7,69,0.00,CLR,,0.00,WeatherDisplay:10.37,2013-07-14 19:24:00,
2013-07-14 15:29:00,91.6,78.6,30.29,SSE,158,2.2,2.2,66,0.00,CLR,,0.00,WeatherDisplay:10.37,2013-07-14 19:29:00,
2013-07-14 15:34:00,87.8,78.5,30.29,SSW,202,4.6,4.6,74,0.00,CLR,,0.00,WeatherDisplay:10.37,2013-07-14 19:34:00,
2013-07-14 15:39:00,88.2,78.4,30.29,SSW,202,3.5,3.5,73,0.00,CLR,,0.00,WeatherDisplay:10.37,2013-07-14 19:39:00,
2013-07-14 15:44:00,90.3,80.0,30.29,WSW,248,2.3,2.3,72,0.00,CLR,,0.00,WeatherDisplay:10.37,2013-07-14 19:44:00,
2013-07-14 15:49:00,89.6,78.1,30.28,South,180,5.8,5.8,69,0.00,CLR,,0.00,WeatherDisplay:10.37,2013-07-14 19:49:00,
2013-07-14 15:55:00,91.0,79.8,30.28,West,270,0.0,0.0,70,0.00,CLR,,0.00,WeatherDisplay:10.37,2013-07-14 19:55:00,
2013-07-14 16:00:00,91.9,82.4,30.28,West,270,0.0,0.0,74,0.00,CLR,,0.00,WeatherDisplay:10.37,2013-07-14 20:00:00,
2013-07-14 16:05:00,91.9,83.2,30.28,West,270,0.0,0.0,76,0.00,CLR,,0.00,WeatherDisplay:10.37,2013-07-14 20:05:00,
2013-07-14 16:10:00,92.2,80.6,30.28,SW,221,2.0,5.0,69,0.00,CLR,,0.00,WeatherDisplay:10.37,2013-07-14 20:10:00,
2013-07-14 16:15:00,90.5,80.7,30.28,South,180,4.6,4.6,73,0.00,CLR,,0.00,WeatherDisplay:10.37,2013-07-14 20:15:00,
2013-07-14 16:20:00,90.1,79.0,30.28,SSE,158,3.5,3.5,70,0.00,CLR,,0.00,WeatherDisplay:10.37,2013-07-14 20:20:00,
2013-07-14 16:25:00,89.2,80.6,30.28,SSW,212,2.0,3.0,76,0.00,CLR,,0.00,WeatherDisplay:10.37,2013-07-14 20:25:00,
2013-07-14 16:30:00,90.9,82.3,30.28,West,270,0.0,0.0,76,0.00,CLR,,0.00,WeatherDisplay:10.37,2013-07-14 20:30:00,
2013-07-14 16:35:00,88.5,81.1,30.28,SW,229,1.0,4.0,79,0.00,CLR,,0.00,WeatherDisplay:10.37,2013-07-14 20:35:00,
2013-07-14 16:40:00,88.9,81.1,30.28,SW,230,0.0,2.0,78,0.00,CLR,,0.00,WeatherDisplay:10.37,2013-07-14 20:40:00,
2013-07-14 16:45:00,88.5,80.4,30.28,NNW,338,0.0,0.0,77,0.00,CLR,,0.00,WeatherDisplay:10.37,2013-07-14 20:45:00,
2013-07-14 16:50:00,89.1,80.1,30.28,North,360,0.0,0.0,75,0.00,CLR,,0.00,WeatherDisplay:10.37,2013-07-14 20:50:00,
2013-07-14 16:55:00,89.6,81.0,30.28,WNW,292,0.0,0.0,76,0.00,CLR,,0.00,WeatherDisplay:10.37,2013-07-14 20:55:00,
2013-07-14 17:00:00,89.6,79.8,30.28,NNW,345,2.0,3.0,73,0.00,CLR,,0.00,WeatherDisplay:10.37,2013-07-14 21:00:00,
2013-07-14 17:05:00,90.0,80.2,30.28,NNW,348,1.0,4.0,73,0.00,CLR,,0.00,WeatherDisplay:10.37,2013-07-14 21:05:00,
2013-07-14 17:10:00,89.1,79.7,30.28,SSE,158,0.0,0.0,74,0.00,CLR,,0.00,WeatherDisplay:10.37,2013-07-14 21:10:00,
2013-07-14 17:15:00,89.1,82.5,30.28,West,270,2.3,2.3,81,0.00,CLR,,0.00,WeatherDisplay:10.37,2013-07-14 21:15:00,
2013-07-14 17:20:00,88.5,82.3,30.28,West,271,1.0,2.0,82,0.00,CLR,,0.00,WeatherDisplay:10.37,2013-07-14 21:20:00,
2013-07-14 17:25:00,88.0,80.3,30.27,WNW,292,1.2,0.0,78,0.00,CLR,,0.00,WeatherDisplay:10.37,2013-07-14 21:25:00,
2013-07-14 17:30:00,88.0,79.9,30.27,NW,324,0.0,2.0,77,0.00,CLR,,0.00,WeatherDisplay:10.37,2013-07-14 21:30:00,
2013-07-14 17:35:00,88.2,79.3,30.27,North,354,0.0,0.0,75,0.00,CLR,,0.00,WeatherDisplay:10.37,2013-07-14 21:35:00,
2013-07-14 17:40:00,88.2,79.7,30.27,NNW,338,0.0,0.0,76,0.00,CLR,,0.00,WeatherDisplay:10.37,2013-07-14 21:40:00,
2013-07-14 17:45:00,88.0,79.9,30.27,NW,322,0.0,0.0,77,0.00,CLR,,0.00,WeatherDisplay:10.37,2013-07-14 21:45:00,
2013-07-14 17:50:00,87.8,80.1,30.27,SW,225,0.0,0.0,78,0.00,CLR,,0.00,WeatherDisplay:10.37,2013-07-14 21:50:00,
2013-07-14 17:55:00,87.7,81.9,30.27,WSW,254,0.0,0.0,83,0.00,CLR,,0.00,WeatherDisplay:10.37,2013-07-14 21:55:00,
2013-07-14 18:00:00,87.4,80.8,30.27,West,270,0.0,0.0,81,0.00,CLR,,0.00,WeatherDisplay:10.37,2013-07-14 22:00:00,
2013-07-14 18:05:00,87.3,81.5,30.27,West,270,0.0,0.0,83,0.00,CLR,,0.00,WeatherDisplay:10.37,2013-07-14 22:05:00,
2013-07-14 18:10:00,86.7,81.3,30.27,WSW,248,0.0,0.0,84,0.00,CLR,,0.00,WeatherDisplay:10.37,2013-07-14 22:10:00,
2013-07-14 18:15:00,85.8,80.8,30.27,West,272,0.0,0.0,85,0.00,CLR,,0.00,WeatherDisplay:10.37,2013-07-14 22:15:00,
2013-07-14 18:20:00,85.5,79.0,30.27,NNE,22,0.0,0.0,81,0.00,CLR,,0.00,WeatherDisplay:10.37,2013-07-14 22:20:00,
2013-07-14 18:25:00,85.5,80.1,30.26,NW,316,0.0,0.0,84,0.00,CLR,,0.00,WeatherDisplay:10.37,2013-07-14 22:25:00,
2013-07-14 18:30:00,85.5,80.8,30.26,West,264,0.0,0.0,86,0.00,CLR,,0.00,WeatherDisplay:10.37,2013-07-14 22:30:00,
2013-07-14 18:35:00,85.5,79.7,30.26,East,90,0.0,0.0,83,0.00,CLR,,0.00,WeatherDisplay:10.37,2013-07-14 22:35:00,
2013-07-14 18:40:00,85.3,80.7,30.27,West,271,0.0,0.0,86,0.00,CLR,,0.00,WeatherDisplay:10.37,2013-07-14 22:40:00,
2013-07-14 18:45:00,84.6,79.3,30.27,West,270,1.0,3.0,84,0.00,CLR,,0.00,WeatherDisplay:10.37,2013-07-14 22:45:00,
2013-07-14 18:50:00,84.7,79.0,30.27,NW,307,0.0,2.0,83,0.00,CLR,,0.00,WeatherDisplay:10.37,2013-07-14 22:50:00,
2013-07-14 18:55:00,84.7,79.7,30.27,WNW,297,0.0,2.0,85,0.00,CLR,,0.00,WeatherDisplay:10.37,2013-07-14 22:55:00,
2013-07-14 19:00:00,84.4,79.4,30.27,NE,45,0.0,0.0,85,0.00,CLR,,0.00,WeatherDisplay:10.37,2013-07-14 23:00:00,
2013-07-14 19:05:00,84.0,79.4,30.27,NW,307,2.0,3.0,86,0.00,CLR,,0.00,WeatherDisplay:10.37,2013-07-14 23:05:00,
2013-07-14 19:10:00,83.5,78.5,30.27,West,270,1.2,1.2,85,0.00,CLR,,0.00,WeatherDisplay:10.37,2013-07-14 23:10:00,
2013-07-14 19:15:00,83.3,79.0,30.27,WNW,292,1.2,0.0,87,0.00,CLR,,0.00,WeatherDisplay:10.37,2013-07-14 23:15:00,
2013-07-14 19:20:00,82.8,78.5,30.27,NW,315,1.7,1.9,87,0.00,CLR,,0.00,WeatherDisplay:10.37,2013-07-14 23:20:00,
2013-07-14 19:25:00,82.5,78.2,30.27,WNW,285,0.0,2.0,87,0.00,CLR,,0.00,WeatherDisplay:10.37,2013-07-14 23:25:00,
2013-07-14 19:30:00,82.0,78.1,30.27,West,270,1.2,1.2,88,0.00,CLR,,0.00,WeatherDisplay:10.37,2013-07-14 23:30:00,
2013-07-14 19:35:00,81.5,77.6,30.27,West,267,2.0,3.0,88,0.00,CLR,,0.00,WeatherDisplay:10.37,2013-07-14 23:35:00,
2013-07-14 19:40:00,81.3,77.4,30.27,West,262,0.0,2.0,88,0.00,CLR,,0.00,WeatherDisplay:10.37,2013-07-14 23:40:00,
2013-07-14 19:45:00,81.0,77.4,30.27,West,270,2.3,2.3,89,0.00,CLR,,0.00,WeatherDisplay:10.37,2013-07-14 23:45:00,
2013-07-14 19:50:00,80.6,77.1,30.27,West,271,0.0,2.0,89,0.00,CLR,,0.00,WeatherDisplay:10.37,2013-07-14 23:50:00,
2013-07-14 19:55:00,80.4,76.9,30.27,West,270,0.0,0.0,89,0.00,CLR,,0.00,WeatherDisplay:10.37,2013-07-14 23:55:00,
2013-07-14 20:00:00,80.2,76.7,30.28,West,270,0.0,0.0,89,0.00,CLR,,0.00,WeatherDisplay:10.37,2013-07-15 00:00:00,
2013-07-14 20:05:00,79.9,76.7,30.28,West,267,0.0,0.0,90,0.00,CLR,,0.00,WeatherDisplay:10.37,2013-07-15 00:05:00,
2013-07-14 20:10:00,79.5,76.3,30.28,West,270,0.0,0.0,90,0.00,CLR,,0.00,WeatherDisplay:10.37,2013-07-15 00:10:00,
2013-07-14 20:15:00,79.3,76.1,30.28,WSW,248,0.0,0.0,90,0.00,CLR,,0.00,WeatherDisplay:10.37,2013-07-15 00:15:00,
2013-07-14 20:20:00,79.0,75.8,30.28,West,270,0.0,0.0,90,0.00,CLR,,0.00,WeatherDisplay:10.37,2013-07-15 00:20:00,
2013-07-14 20:25:00,78.8,75.9,30.28,West,270,0.0,0.0,91,0.00,CLR,,0.00,WeatherDisplay:10.37,2013-07-15 00:25:00,
2013-07-14 20:30:00,78.6,75.8,30.28,West,270,0.0,0.0,91,0.00,CLR,,0.00,WeatherDisplay:10.37,2013-07-15 00:30:00,
2013-07-14 20:35:00,78.3,75.5,30.28,West,270,0.0,0.0,91,0.00,CLR,,0.00,WeatherDisplay:10.37,2013-07-15 00:35:00,
2013-07-14 20:40:00,78.1,75.3,30.28,West,270,0.0,0.0,91,0.00,CLR,,0.00,WeatherDisplay:10.37,2013-07-15 00:40:00,
2013-07-14 20:45:00,77.7,74.9,30.28,WSW,248,0.0,0.0,91,0.00,CLR,,0.00,WeatherDisplay:10.37,2013-07-15 00:45:00,
2013-07-14 20:50:00,77.4,74.6,30.28,West,270,0.0,0.0,91,0.00,CLR,,0.00,WeatherDisplay:10.37,2013-07-15 00:50:00,
2013-07-14 20:55:00,77.4,74.9,30.28,WSW,248,0.0,0.0,92,0.00,CLR,,0.00,WeatherDisplay:10.37,2013-07-15 00:55:00,
2013-07-14 21:00:00,77.0,74.5,30.28,WSW,248,0.0,0.0,92,0.00,CLR,,0.00,WeatherDisplay:10.37,2013-07-15 01:00:00,
2013-07-14 21:05:00,76.8,74.3,30.28,WSW,248,0.0,0.0,92,0.00,CLR,,0.00,WeatherDisplay:10.37,2013-07-15 01:05:00,
2013-07-14 21:10:00,76.5,74.0,30.28,SW,225,0.0,0.0,92,0.00,CLR,,0.00,WeatherDisplay:10.37,2013-07-15 01:10:00,
2013-07-14 21:15:00,76.3,73.8,30.28,WSW,248,0.0,0.0,92,0.00,CLR,,0.00,WeatherDisplay:10.37,2013-07-15 01:15:00,
2013-07-14 21:20:00,75.9,73.7,30.28,SSW,202,0.0,0.0,93,0.00,CLR,,0.00,WeatherDisplay:10.37,2013-07-15 01:20:00,
2013-07-14 21:25:00,75.6,73.4,30.29,SSW,202,0.0,0.0,93,0.00,CLR,,0.00,WeatherDisplay:10.37,2013-07-15 01:25:00,
2013-07-14 21:30:00,75.4,73.6,30.29,SSW,202,0.0,0.0,94,0.00,CLR,,0.00,WeatherDisplay:10.37,2013-07-15 01:30:00,
2013-07-14 21:35:00,75.2,73.4,30.29,SSW,202,0.0,0.0,94,0.00,CLR,,0.00,WeatherDisplay:10.37,2013-07-15 01:35:00,
2013-07-14 21:40:00,75.0,73.2,30.28,SSW,202,0.0,0.0,94,0.00,CLR,,0.00,WeatherDisplay:10.37,2013-07-15 01:40:00,
2013-07-14 21:45:00,74.8,73.0,30.28,SSW,202,0.0,0.0,94,0.00,CLR,,0.00,WeatherDisplay:10.37,2013-07-15 01:45:00,
2013-07-14 21:50:00,74.7,72.9,30.29,SSW,202,0.0,0.0,94,0.00,CLR,,0.00,WeatherDisplay:10.37,2013-07-15 01:50:00,
2013-07-14 21:55:00,74.5,72.7,30.29,SSW,202,0.0,0.0,94,0.00,CLR,,0.00,WeatherDisplay:10.37,2013-07-15 01:55:00,
2013-07-14 22:00:00,74.1,72.6,30.29,SSW,202,0.0,0.0,95,0.00,CLR,,0.00,WeatherDisplay:10.37,2013-07-15 02:00:00,
2013-07-14 22:05:00,73.9,72.4,30.29,SSW,202,0.0,0.0,95,0.00,CLR,,0.00,WeatherDisplay:10.37,2013-07-15 02:05:00,
2013-07-14 22:10:00,73.8,72.0,30.29,SSW,202,0.0,0.0,94,0.00,CLR,,0.00,WeatherDisplay:10.37,2013-07-15 02:10:00,
2013-07-14 22:15:00,73.6,72.1,30.29,SSW,202,0.0,0.0,95,0.00,CLR,,0.00,WeatherDisplay:10.37,2013-07-15 02:15:00,
2013-07-14 22:20:00,73.4,72.2,30.29,SSW,202,0.0,0.0,96,0.00,CLR,,0.00,WeatherDisplay:10.37,2013-07-15 02:20:00,
2013-07-14 22:26:00,73.0,71.8,30.30,SSW,202,0.0,0.0,96,0.00,CLR,,0.00,WeatherDisplay:10.37,2013-07-15 02:26:00,
2013-07-14 22:31:00,73.0,71.8,30.30,SSW,202,0.0,0.0,96,0.00,CLR,,0.00,WeatherDisplay:10.37,2013-07-15 02:31:00,
2013-07-14 22:36:00,72.9,71.7,30.30,South,180,0.0,0.0,96,0.00,CLR,,0.00,WeatherDisplay:10.37,2013-07-15 02:36:00,
2013-07-14 22:41:00,72.7,71.5,30.30,SSW,202,0.0,0.0,96,0.00,CLR,,0.00,WeatherDisplay:10.37,2013-07-15 02:41:00,
2013-07-14 22:46:00,72.7,71.8,30.30,SSW,202,0.0,0.0,97,0.00,CLR,,0.00,WeatherDisplay:10.37,2013-07-15 02:46:00,
2013-07-14 22:51:00,72.5,71.6,30.30,SSW,202,0.0,0.0,97,0.00,CLR,,0.00,WeatherDisplay:10.37,2013-07-15 02:51:00,
2013-07-14 22:56:00,72.3,71.4,30.30,SSW,202,0.0,0.0,97,0.00,CLR,,0.00,WeatherDisplay:10.37,2013-07-15 02:56:00,
2013-07-14 23:01:00,72.3,71.4,30.30,SSW,202,0.0,0.0,97,0.00,CLR,,0.00,WeatherDisplay:10.37,2013-07-15 03:01:00,
2013-07-14 23:06:00,72.1,71.2,30.30,South,180,0.0,0.0,97,0.00,CLR,,0.00,WeatherDisplay:10.37,2013-07-15 03:06:00,
2013-07-14 23:11:00,72.1,71.2,30.30,SSW,202,0.0,0.0,97,0.00,CLR,,0.00,WeatherDisplay:10.37,2013-07-15 03:11:00,
2013-07-14 23:16:00,71.8,70.9,30.30,SSW,202,0.0,0.0,97,0.00,CLR,,0.00,WeatherDisplay:10.37,2013-07-15 03:16:00,
2013-07-14 23:21:00,71.8,71.2,30.30,SSW,202,0.0,0.0,98,0.00,CLR,,0.00,WeatherDisplay:10.37,2013-07-15 03:21:00,
2013-07-14 23:26:00,71.6,71.0,30.30,South,180,0.0,0.0,98,0.00,CLR,,0.00,WeatherDisplay:10.37,2013-07-15 03:26:00,
2013-07-14 23:31:00,71.4,70.8,30.30,SSW,202,0.0,0.0,98,0.00,CLR,,0.00,WeatherDisplay:10.37,2013-07-15 03:31:00,
2013-07-14 23:36:00,71.4,70.8,30.30,South,180,0.0,0.0,98,0.00,CLR,,0.00,WeatherDisplay:10.37,2013-07-15 03:36:00,
2013-07-14 23:41:00,71.4,70.8,30.30,SSW,202,0.0,0.0,98,0.00,CLR,,0.00,WeatherDisplay:10.37,2013-07-15 03:41:00,
2013-07-14 23:46:00,71.2,70.6,30.30,SSW,202,0.0,0.0,98,0.00,CLR,,0.00,WeatherDisplay:10.37,2013-07-15 03:46:00,
2013-07-14 23:51:00,71.2,70.6,30.30,SSW,202,0.0,0.0,98,0.00,CLR,,0.00,WeatherDisplay:10.37,2013-07-15 03:51:00,
2013-07-14 23:56:00,71.1,70.5,30.30,South,180,0.0,0.0,98,0.00,CLR,,0.00,WeatherDisplay:10.37,2013-07-15 03:56:00,